This is the latest recevied weather packets stored in our database for station/object K4AVM-13. If no packets are shown the sender has not sent any weather packets the latest 10 day(s).
| Time | Temp. | Humidity | Pressure | Rain* | Wind** | Luminosity | Snow |
|---|---|---|---|---|---|---|---|
| 1777379798 | 10° C | 85% | 1025 hPa | 0 mm | - | 71 W/m² | - |
| 1777379493 | 10° C | 85% | 1025.2 hPa | 0 mm | - | 56 W/m² | - |
| 1777379188 | 10° C | 86% | 1025.1 hPa | 0 mm | - | 50 W/m² | - |
| 1777378884 | 10° C | 86% | 1025.5 hPa | 0 mm | - | 47 W/m² | - |
| 1777378580 | 10° C | 86% | 1025.3 hPa | 0 mm | - | 39 W/m² | - |
| 1777378276 | 10° C | 87% | 1025 hPa | 0 mm | - | 34 W/m² | - |
| 1777377974 | 9.44° C | 88% | 1025.1 hPa | 0 mm | - | 37 W/m² | - |
| 1777377669 | 9.44° C | 88% | 1025.2 hPa | 0 mm | - | 51 W/m² | - |
| 1777377365 | 8.89° C | 90% | 1025.2 hPa | 0 mm | - | 66 W/m² | - |
| 1777377061 | 8.89° C | 90% | 1025.2 hPa | 0 mm | - | 58 W/m² | - |
| 1777376758 | 8.89° C | 89% | 1025 hPa | 0 mm | - | 42 W/m² | - |
| 1777376456 | 8.89° C | 89% | 1025 hPa | 0 mm | - | 35 W/m² | - |
| 1777376156 | 8.89° C | 89% | 1024.8 hPa | 0 mm | - | 37 W/m² | - |
| 1777375851 | 8.89° C | 88% | 1024.4 hPa | 0 mm | - | 33 W/m² | - |
| 1777375546 | 8.33° C | 90% | 1023.9 hPa | 0 mm | - | 30 W/m² | - |
| 1777375242 | 8.33° C | 91% | 1023.9 hPa | 0 mm | - | 37 W/m² | - |
| 1777374938 | 7.78° C | 94% | 1023.6 hPa | 0 mm | - | 39 W/m² | - |
| 1777374634 | 7.22° C | 98% | 1023.6 hPa | 0 mm | - | 34 W/m² | - |
| 1777374330 | 7.22° C | 99% | 1023.5 hPa | 0 mm | - | 26 W/m² | - |
| 1777374027 | 6.67° C | 99% | 1023.6 hPa | 0 mm | - | 22 W/m² | - |
| 1777373723 | 6.67° C | 99% | 1023.7 hPa | 0 mm | - | 19 W/m² | - |
| 1777373421 | 6.67° C | 99% | 1023.6 hPa | 0 mm | - | 15 W/m² | - |
| 1777373115 | 6.67° C | 99% | 1023.7 hPa | 0 mm | - | 12 W/m² | - |
| 1777372811 | 6.11° C | 99% | 1023.6 hPa | 0 mm | - | 9 W/m² | - |
| 1777372506 | 6.11° C | 98% | 1023.7 hPa | 0 mm | - | 7 W/m² | - |
* Rain latest hour (hover to see other rain measurements)
** Current wind speed in m/s (hover to see current wind gust speed)